Date,TemperatureHighF,TemperatureAvgF,TemperatureLowF,DewpointHighF,DewpointAvgF,DewpointLowF,HumidityHigh,HumidityAvg,HumidityLow,PressureMaxIn,PressureMinIn,WindSpeedMaxMPH,WindSpeedAvgMPH,GustSpeedMaxMPH,PrecipitationSumIn
2013-1-1,29,24,12,27,20,9,93,83,69,30.17,30.05,7,2,13,0.00
2013-1-2,24,14,5,18,10,2,93,83,73,30.26,30.15,6,1,7,0.00
2013-1-3,29,23,13,26,18,7,89,80,74,30.27,30.18,11,2,14,0.00
2013-1-4,28,22,15,23,18,12,91,83,73,30.28,30.20,14,2,21,0.00
2013-1-5,34,28,19,30,24,18,94,86,75,30.31,30.07,8,2,13,0.01
2013-1-6,35,32,27,32,28,23,91,88,83,30.33,29.96,12,3,19,0.00
2013-1-7,34,28,20,27,24,19,94,86,75,30.42,30.19,12,3,19,0.00
2013-1-8,38,31,22,30,26,20,92,82,70,30.28,30.16,7,3,11,0.00
2013-1-9,45,39,30,36,32,23,85,76,65,30.49,30.11,11,3,17,0.00
2013-1-10,39,33,24,36,29,21,94,86,76,30.53,30.09,18,6,23,0.13
2013-1-11,57,48,37,53,46,35,98,92,79,30.08,29.76,17,6,24,0.29
2013-1-12,61,52,47,53,49,45,97,89,73,29.93,29.75,8,2,15,0.29
2013-1-13,48,36,24,47,35,21,97,95,89,30.15,29.73,14,6,21,0.59
2013-1-14,24,20,16,21,18,15,94,88,82,30.48,30.16,13,4,19,0.00
2013-1-15,29,22,13,23,18,11,95,88,77,30.46,30.16,8,1,11,0.00
2013-1-16,36,29,20,29,23,19,95,81,56,30.15,29.92,9,2,15,0.02
2013-1-17,37,30,20,30,24,15,92,79,62,30.37,30.04,17,7,24,0.00
2013-1-18,38,29,20,27,21,15,83,72,60,30.46,30.04,13,4,24,0.00
2013-1-19,49,42,37,37,32,27,78,68,59,30.04,29.75,15,5,20,0.00
2013-1-20,41,22,14,33,15,9,83,72,56,30.24,29.75,19,8,31,0.00
2013-1-21,18,14,7,12,6,-2,85,71,62,30.23,30.09,12,4,21,0.00
2013-1-22,13,8,3,2,-1,-3,77,68,54,30.39,30.23,11,3,15,0.00
2013-1-23,19,14,8,16,7,0,91,73,60,30.36,30.12,12,2,22,0.00
2013-1-24,21,14,1,14,6,-3,90,73,51,30.64,30.20,15,3,26,0.00
2013-1-25,24,21,18,21,16,10,91,81,71,30.48,30.04,14,4,15,0.00
2013-1-26,27,25,20,22,20,16,90,82,74,30.45,30.09,10,4,13,0.00
2013-1-27,33,26,19,32,22,16,95,85,77,30.45,30.07,15,7,20,0.00
2013-1-28,49,44,34,49,44,32,99,98,95,30.07,29.91,13,3,18,0.24
2013-1-29,60,54,45,57,53,45,99,97,91,29.95,29.37,17,6,25,0.41
2013-1-30,62,46,29,59,45,27,99,95,86,29.43,29.17,22,6,25,0.52
2013-1-31,29,20,11,26,15,6,91,83,72,30.04,29.45,13,4,24,0.00
2013-2-1,14,10,5,9,5,2,85,79,72,30.38,30.05,9,3,22,0.00
2013-2-2,26,20,14,23,16,9,92,88,82,30.28,29.98,10,2,14,0.00
2013-2-3,22,18,14,16,14,11,91,84,77,30.09,29.95,9,1,14,0.03
2013-2-4,24,21,15,22,19,12,94,91,88,30.08,29.86,9,3,11,0.00
2013-2-5,30,23,8,29,21,6,95,91,78,30.03,29.83,9,2,16,0.05
2013-2-6,34,28,22,27,23,20,92,80,62,30.29,30.03,9,3,14,0.08
2013-2-7,38,32,26,33,28,22,95,84,74,30.23,29.78,13,6,15,0.09
2013-2-8,34,30,22,33,27,19,98,88,79,30.36,29.78,22,9,28,0.01
2013-2-9,33,25,15,27,21,14,94,84,73,30.45,30.23,11,4,16,0.00
2013-2-10,48,37,28,46,33,25,96,85,75,30.22,29.64,19,8,23,0.12
2013-2-11,48,37,31,47,31,24,94,79,73,29.98,29.59,16,6,26,0.00
2013-2-12,37,31,28,28,25,24,85,79,70,30.10,29.95,10,3,18,0.00
2013-2-13,44,33,23,32,27,21,94,79,60,29.95,29.75,6,1,10,0.00
2013-2-14,41,36,33,36,32,25,93,84,72,29.95,29.72,13,4,24,0.00
2013-2-15,32,28,20,27,22,15,89,80,65,30.17,29.94,14,4,17,0.00
2013-2-16,24,20,13,20,16,7,91,83,61,30.15,30.07,19,5,23,0.00
2013-2-17,29,21,13,17,14,11,91,75,53,30.25,30.14,10,2,11,0.00
2013-2-18,51,37,23,43,30,16,91,74,63,30.19,29.54,22,8,33,0.24
2013-2-19,45,23,16,42,19,10,94,85,78,30.07,29.47,22,6,28,0.13
2013-2-20,23,19,14,19,15,10,88,84,80,30.34,30.08,14,5,21,0.00
2013-2-21,27,23,20,22,19,16,86,83,79,30.39,30.14,19,8,25,0.00
2013-2-22,34,28,21,33,27,18,98,94,84,30.14,29.89,20,7,30,0.04
2013-2-23,31,28,26,27,23,21,88,82,73,29.97,29.91,9,2,13,0.00
2013-2-24,36,29,24,27,24,21,92,80,66,30.17,29.96,10,2,13,0.00
2013-2-25,41,31,19,32,26,18,95,83,68,30.22,30.02,13,4,14,0.00
2013-2-26,34,33,31,33,30,26,97,89,78,30.02,29.44,22,9,28,0.19
2013-2-27,35,33,31,34,32,30,98,96,93,29.61,29.45,13,1,13,0.20
2013-2-28,37,34,32,33,32,30,98,93,86,29.96,29.60,12,6,15,0.14
2013-3-1,32,30,25,31,26,20,95,85,76,30.13,29.96,9,4,14,0.00
2013-3-2,32,27,25,23,21,19,86,78,69,30.12,30.07,13,7,17,0.00
2013-3-3,32,26,19,21,19,15,88,75,63,30.11,30.05,22,6,22,0.00
2013-3-4,35,27,15,27,20,14,95,77,57,30.17,30.05,7,2,11,0.00
2013-3-5,33,30,27,29,27,25,97,88,77,30.09,29.73,18,9,22,0.00
2013-3-6,33,30,26,29,27,25,96,88,81,30.25,29.81,17,7,22,0.18
2013-3-7,37,33,27,31,28,23,94,82,65,30.41,30.24,13,4,14,0.02
2013-3-8,39,27,13,27,20,11,96,78,53,30.52,30.41,6,1,7,0.00
2013-3-9,43,34,23,36,29,19,88,81,69,30.42,29.98,16,6,19,0.00
2013-3-10,58,48,40,47,40,35,81,73,65,29.98,29.73,13,7,18,0.03
2013-3-11,54,45,35,49,42,32,98,90,65,29.75,29.53,11,4,22,0.13
2013-3-12,35,33,30,32,29,26,95,86,72,29.96,29.76,10,3,16,0.00
2013-3-13,31,27,24,28,22,18,91,81,69,30.30,29.96,21,7,28,0.01
2013-3-14,42,31,22,28,22,18,85,69,45,30.33,30.13,6,2,11,0.01
2013-3-15,47,38,30,41,34,28,97,88,71,30.14,29.78,6,1,10,0.19
2013-3-16,40,34,30,40,33,27,98,93,83,30.08,29.64,11,6,16,0.00
2013-3-17,36,30,28,26,24,22,85,78,65,30.22,30.08,18,8,22,0.00
2013-3-18,36,32,28,35,30,23,98,93,81,30.09,29.58,20,8,25,0.05
2013-3-19,35,28,21,27,19,15,84,69,54,30.04,29.75,14,5,28,0.00
2013-3-20,30,25,20,19,15,11,87,67,53,30.04,29.98,15,6,21,0.00
2013-3-21,33,24,16,23,18,13,91,79,57,30.04,29.96,16,5,20,0.02
2013-3-22,41,28,16,23,19,14,94,72,44,30.07,30.00,9,2,14,0.00
2013-3-23,41,31,23,27,23,18,91,74,52,30.12,30.00,9,3,13,0.00
2013-3-24,35,31,27,28,26,24,91,81,67,30.01,29.57,25,10,31,0.00
2013-3-25,36,32,28,31,29,27,96,88,73,29.98,29.55,16,10,25,0.06
2013-3-26,38,34,31,32,30,28,92,84,70,30.20,29.98,13,6,19,0.00
2013-3-27,42,36,30,33,29,23,92,78,56,30.29,30.20,15,4,20,0.00
2013-3-28,50,37,23,28,25,20,89,64,41,30.33,30.27,10,2,15,0.00
2013-3-29,52,38,24,30,25,21,92,64,37,30.32,30.21,16,2,18,0.00
2013-3-30,55,39,24,36,29,21,92,68,45,30.24,29.92,7,1,13,0.00
2013-3-31,61,48,38,45,38,31,97,70,40,29.92,29.66,21,3,24,0.00
2013-4-1,39,33,24,31,22,16,81,63,42,30.14,29.78,21,8,26,0.00
2013-4-2,43,30,19,24,17,9,90,61,29,30.29,30.14,20,4,24,0.00
2013-4-3,46,32,19,24,16,11,89,56,26,30.44,30.29,14,3,19,0.00
2013-4-4,57,40,26,26,21,17,74,50,26,30.35,29.97,9,2,12,0.00
2013-4-5,53,42,33,33,26,17,79,56,25,30.18,29.95,15,5,18,0.00
2013-4-6,62,48,30,40,31,24,82,54,37,30.17,29.74,21,10,28,0.00
2013-4-7,62,54,43,47,43,36,87,66,47,29.96,29.66,15,5,24,0.04
2013-4-8,73,52,42,58,45,35,95,77,52,29.97,29.72,13,6,25,0.28
2013-4-9,78,61,45,61,52,43,94,75,54,30.00,29.81,14,4,21,0.00
2013-4-10,65,51,45,60,50,44,97,93,82,29.87,29.76,14,6,23,0.45
2013-4-11,45,42,39,44,41,39,99,97,95,29.83,29.57,20,11,27,1.36
2013-4-12,43,40,38,41,37,33,99,91,78,29.84,29.56,9,2,16,0.13
2013-4-13,43,39,34,36,33,31,95,81,65,30.00,29.85,7,2,15,0.08
2013-4-14,60,47,37,50,42,33,92,81,70,30.06,29.83,16,8,23,0.00
2013-4-15,64,57,47,57,52,44,90,81,75,29.91,29.82,14,5,19,0.00
2013-4-16,61,51,45,56,46,39,97,84,62,30.18,29.86,15,6,17,0.54
2013-4-17,54,50,44,47,43,39,92,79,73,30.24,29.93,22,10,26,0.25
2013-4-18,73,58,45,66,56,42,98,93,79,29.93,29.51,17,7,26,1.64
2013-4-19,60,41,36,60,37,31,98,86,77,29.85,29.44,13,4,24,1.13
2013-4-20,42,36,31,32,27,20,91,70,47,30.45,29.85,14,6,22,0.03
2013-4-21,50,38,26,35,29,22,89,69,50,30.58,30.42,16,6,18,0.00
2013-4-22,63,48,32,41,35,29,90,64,37,30.42,30.12,15,5,15,0.00
2013-4-23,67,54,44,56,47,39,98,79,52,30.13,29.79,13,4,21,1.21
2013-4-24,45,40,36,44,36,28,97,86,56,30.17,29.77,16,8,25,0.24
2013-4-25,51,43,36,40,35,33,89,74,51,30.36,30.14,17,4,21,0.06
2013-4-26,60,47,32,43,37,30,95,71,48,30.43,30.32,13,3,17,0.00
2013-4-27,67,55,40,49,41,35,85,62,38,30.34,30.03,14,4,19,0.00
2013-4-28,58,55,51,57,53,49,98,93,76,30.03,29.79,9,3,11,0.44
2013-4-29,69,60,54,59,55,53,99,85,63,29.93,29.84,9,2,11,0.00
2013-4-30,76,65,53,64,57,50,92,78,64,29.99,29.88,17,8,23,0.00
2013-5-1,81,69,54,61,57,51,89,67,46,30.14,29.99,12,4,16,0.00
2013-5-2,77,68,59,60,57,55,89,69,49,30.15,30.04,14,5,18,0.00
2013-5-3,76,68,59,62,56,47,86,67,46,30.05,29.91,16,7,25,0.00
2013-5-4,72,64,56,52,47,42,74,55,35,29.99,29.93,16,8,23,0.00
2013-5-5,70,61,50,53,48,43,81,62,49,30.00,29.94,15,6,19,0.00
2013-5-6,72,64,52,54,49,42,75,59,48,29.99,29.91,12,5,15,0.00
2013-5-7,74,64,52,56,53,48,87,69,49,30.00,29.93,11,3,18,0.00
2013-5-8,77,63,49,63,54,48,98,76,39,29.99,29.92,19,2,21,0.43
2013-5-9,78,61,50,59,55,50,98,82,44,29.96,29.86,4,0,7,0.04
2013-5-10,69,60,48,61,57,45,97,89,70,29.87,29.75,12,4,18,0.33
2013-5-11,55,48,40,51,44,36,96,88,73,29.97,29.80,19,5,29,0.09
2013-5-12,50,43,37,36,33,31,90,70,50,30.12,29.97,19,6,26,0.00
2013-5-13,60,46,33,37,32,23,96,62,27,30.18,30.09,13,2,21,0.00
2013-5-14,85,65,48,62,47,32,70,53,32,30.09,29.68,13,4,23,0.00
2013-5-15,84,75,64,62,57,53,73,56,36,29.77,29.63,13,4,20,0.00
2013-5-16,82,68,51,56,49,43,96,58,26,29.94,29.76,5,1,11,0.00
2013-5-17,80,67,53,58,50,43,76,57,41,30.04,29.93,13,6,17,0.00
2013-5-18,78,67,56,62,53,41,75,62,53,30.07,29.95,10,4,14,0.00
2013-5-19,85,72,57,66,60,50,79,66,52,29.97,29.80,9,3,14,0.00
2013-5-20,86,76,67,72,68,64,93,76,57,29.85,29.75,9,3,19,0.00
2013-5-21,85,75,64,68,64,62,94,72,48,29.77,29.66,7,2,18,0.03
2013-5-22,76,69,64,67,64,61,93,83,61,29.70,29.61,15,3,20,0.19
2013-5-23,63,56,49,61,54,47,96,92,80,30.14,29.70,15,5,21,0.21
2013-5-24,63,51,40,47,42,37,91,73,43,30.35,30.14,16,6,19,0.00
2013-5-25,67,55,41,47,43,38,92,68,43,30.37,30.23,6,1,11,0.00
2013-5-26,69,58,45,46,43,40,85,58,37,30.30,30.16,10,4,16,0.00
2013-5-27,61,55,50,57,50,39,98,85,45,30.18,29.89,14,8,23,0.87
2013-5-28,79,70,58,71,66,57,99,87,71,29.91,29.79,10,3,16,0.16
2013-5-29,84,75,64,70,66,62,93,74,58,29.95,29.84,7,2,22,0.00
2013-5-30,85,76,67,71,67,63,90,75,60,30.00,29.86,11,4,22,0.06
2013-5-31,74,71,63,70,67,62,97,86,78,29.93,29.81,9,4,20,1.02
2013-6-1,73,68,64,67,65,63,98,89,76,29.84,29.68,11,3,17,1.32
2013-6-2,69,62,48,64,57,44,93,84,73,29.98,29.68,14,5,19,0.00
2013-6-3,67,57,47,49,45,42,92,68,42,30.08,29.98,8,3,14,0.00
2013-6-4,73,61,46,54,50,44,97,70,46,30.16,30.08,10,2,13,0.00
2013-6-5,74,65,55,58,51,43,74,61,45,30.10,29.90,10,5,15,0.00
2013-6-6,76,65,57,58,52,46,77,65,50,29.92,29.77,11,4,14,0.00
2013-6-7,71,62,55,57,55,52,94,77,57,29.88,29.82,8,2,13,0.00
2013-6-8,77,64,49,59,54,48,98,72,46,29.98,29.88,6,1,10,0.00
2013-6-9,81,71,63,66,61,56,91,72,49,30.01,29.83,12,4,14,0.04
2013-6-10,79,69,64,67,66,63,98,89,61,29.83,29.70,9,2,15,0.56
2013-6-11,84,71,62,71,65,62,98,83,57,29.91,29.79,8,2,11,0.00
2013-6-12,87,75,65,77,70,64,98,86,68,29.86,29.59,13,2,22,1.53
2013-6-13,77,68,60,66,60,55,98,78,52,29.93,29.47,17,7,27,0.07
2013-6-14,79,66,56,62,58,55,97,77,47,30.05,29.92,10,2,11,0.00
2013-6-15,76,66,58,67,62,57,99,88,66,30.06,29.90,7,1,11,0.08
2013-6-16,81,72,65,71,67,64,96,84,68,29.89,29.84,9,1,14,0.04
2013-6-17,86,75,67,71,66,60,98,75,43,29.90,29.83,6,1,9,0.00
2013-6-18,77,69,63,66,62,54,94,78,60,30.00,29.82,9,3,17,0.00
2013-6-19,76,65,51,59,53,47,90,67,49,30.12,30.00,8,1,11,0.00
2013-6-20,82,70,55,69,61,52,92,74,55,30.16,30.09,5,1,6,0.00
2013-6-21,86,76,64,66,64,61,90,68,45,30.15,29.94,13,2,18,0.00
2013-6-22,87,76,67,77,70,64,91,81,70,30.06,29.95,6,1,17,0.04
2013-6-23,88,76,65,73,68,64,97,80,55,30.05,29.94,11,2,18,0.00
2013-6-24,85,75,66,72,69,65,98,83,61,30.04,29.88,15,2,22,0.41
2013-6-25,88,76,68,77,71,65,96,83,59,29.95,29.77,10,2,25,0.00
2013-6-26,83,72,67,76,69,66,98,92,70,29.86,29.69,12,2,15,0.60
2013-6-27,84,74,64,75,70,64,99,89,68,29.73,29.62,9,2,16,0.22
2013-6-28,79,72,64,69,65,62,99,82,58,29.63,29.53,16,4,21,0.01
2013-6-29,74,65,59,67,63,59,99,93,79,29.67,29.52,11,2,15,0.09
2013-6-30,76,67,61,65,62,60,98,85,62,29.89,29.67,12,4,17,0.64
2013-7-1,72,66,60,64,59,53,92,80,66,30.00,29.88,12,4,16,0.03
2013-7-2,72,65,58,68,61,56,97,89,75,30.00,29.95,7,3,14,0.09
2013-7-3,80,70,64,69,66,64,99,86,64,30.05,29.96,10,2,14,0.21
2013-7-4,79,69,60,68,63,58,99,82,52,30.11,30.03,4,0,6,0.01
2013-7-5,82,73,66,73,68,65,99,85,67,30.08,30.00,8,1,8,0.00
2013-7-6,78,71,67,71,69,66,99,92,76,30.06,29.96,5,1,8,0.00
2013-7-7,83,74,67,73,70,66,97,86,70,30.02,29.94,8,1,11,0.00
2013-7-8,82,75,69,76,72,68,96,89,76,30.02,29.93,4,1,11,0.12
2013-7-9,87,79,74,79,75,72,97,88,70,29.96,29.85,7,1,11,0.01
2013-7-10,84,75,59,79,71,58,94,87,68,29.93,29.77,14,2,26,0.33
2013-7-11,78,66,54,62,58,53,98,78,51,30.04,29.93,9,2,13,0.00
2013-7-12,78,66,53,65,59,52,98,80,52,30.11,30.02,8,1,10,0.00
2013-7-13,81,70,54,70,64,54,99,83,64,30.14,30.08,9,2,13,0.00
2013-7-14,86,76,66,75,71,65,98,84,68,30.18,30.13,7,2,11,0.00
2013-7-15,90,79,70,78,74,69,99,84,65,30.24,30.17,7,1,10,0.00
2013-7-16,91,80,69,78,73,68,99,81,59,30.28,30.21,7,1,9,0.00
2013-7-17,91,80,68,78,73,67,99,82,60,30.28,30.13,8,1,11,0.00
2013-7-18,92,82,70,79,74,69,99,81,58,30.14,29.95,5,1,10,0.00
2013-7-19,91,83,75,78,75,73,93,78,62,29.95,29.74,10,2,16,0.00
2013-7-20,85,79,69,76,72,66,98,81,59,29.86,29.71,7,2,17,0.89
2013-7-21,85,74,63,73,68,62,99,82,58,29.94,29.83,6,1,9,0.01
2013-7-22,81,72,65,72,68,64,98,89,69,29.86,29.73,10,2,13,0.44
2013-7-23,81,71,58,71,66,55,98,84,67,29.86,29.67,16,3,22,0.00
2013-7-24,72,62,50,60,54,49,94,77,57,30.00,29.86,9,2,11,0.00
2013-7-25,78,64,51,61,56,50,99,78,49,30.09,30.01,5,1,9,0.00
2013-7-26,76,67,55,65,60,54,97,80,62,30.07,29.88,8,1,15,0.00
2013-7-27,75,66,54,66,61,51,95,84,65,29.88,29.76,14,3,21,0.08
2013-7-28,66,58,51,55,52,49,95,81,65,30.00,29.84,8,2,14,0.00
2013-7-29,73,61,50,61,55,49,96,82,64,30.16,30.00,7,1,13,0.01
2013-7-30,77,66,51,65,59,50,99,81,57,30.20,30.07,4,1,15,0.00
2013-7-31,70,67,64,68,66,62,97,95,90,30.07,29.89,7,1,12,0.07
2013-8-1,76,66,56,68,62,55,99,89,55,29.94,29.89,11,2,14,0.38
2013-8-2,76,62,52,72,61,51,99,96,84,29.97,29.83,7,1,18,2.00
2013-8-3,78,68,58,68,62,54,100,83,53,30.03,29.90,11,2,16,0.11
2013-8-4,75,64,50,61,56,50,98,79,53,30.16,30.04,9,2,13,0.01
2013-8-5,74,64,51,66,59,51,98,84,66,30.10,29.92,6,1,10,0.00
2013-8-6,78,70,62,71,66,61,97,88,78,29.93,29.85,7,2,9,0.05
2013-8-7,84,74,67,75,71,66,99,91,72,29.87,29.80,7,1,15,0.32
2013-8-8,75,70,65,70,68,65,99,91,82,29.95,29.87,7,2,10,0.00
2013-8-9,80,71,62,68,65,61,98,83,60,29.99,29.90,7,1,9,0.00
2013-8-10,80,71,63,71,66,62,99,85,65,30.06,29.99,6,1,10,0.00
2013-8-11,79,68,57,68,63,56,99,83,59,30.09,30.02,7,1,12,0.00
2013-8-12,82,72,62,72,67,61,96,83,65,30.04,29.80,5,1,15,0.15
2013-8-13,68,63,53,66,57,50,99,82,58,30.07,29.83,12,5,21,0.04
2013-8-14,69,57,44,56,50,43,98,80,55,30.18,30.07,7,2,17,0.00
2013-8-15,74,60,45,59,52,44,99,79,48,30.18,30.09,8,1,8,0.00
2013-8-16,76,64,54,62,57,53,99,80,50,30.16,30.11,8,0,10,0.00
2013-8-17,76,64,50,63,56,50,99,80,52,30.23,30.14,10,2,15,0.00
2013-8-18,82,67,52,67,60,51,99,81,54,30.18,30.07,5,0,8,0.00
2013-8-19,83,68,54,68,62,53,99,82,58,30.10,30.02,4,0,7,0.00
2013-8-20,85,71,58,71,64,57,99,82,56,30.12,30.04,5,0,9,0.00
2013-8-21,86,74,64,74,68,62,97,84,62,30.11,29.97,7,1,10,0.00
2013-8-22,77,71,67,73,69,66,99,93,84,30.05,29.95,9,2,16,0.55
2013-8-23,81,71,58,67,63,57,99,79,51,30.14,30.03,9,2,9,0.00
2013-8-24,80,67,52,65,58,52,98,77,46,30.27,30.14,8,2,12,0.00
2013-8-25,86,72,58,69,64,56,97,77,54,30.27,30.15,4,1,9,0.01
2013-8-26,86,75,63,75,69,61,94,81,65,30.18,29.99,5,1,8,0.00
2013-8-27,90,79,72,79,74,69,94,84,68,29.99,29.84,4,0,9,0.00
2013-8-28,85,79,72,78,72,69,94,81,73,29.96,29.80,8,3,13,0.00
2013-8-29,86,75,64,74,69,64,99,84,58,30.03,29.95,8,1,9,0.00
2013-8-30,89,76,62,75,70,62,99,82,61,29.96,29.71,5,1,14,0.00
2013-8-31,81,76,70,74,72,69,98,88,74,29.80,29.69,6,1,9,0.04
2013-9-1,80,72,65,74,70,65,100,93,79,29.76,29.70,4,0,7,0.01
2013-9-2,79,71,57,70,64,54,99,82,57,29.92,29.70,16,4,19,0.01
2013-9-3,75,62,48,61,55,47,99,80,57,30.02,29.91,10,2,14,0.00
2013-9-4,79,63,48,63,56,47,99,81,53,30.10,30.02,6,1,12,0.00
2013-9-5,77,64,51,59,52,42,99,70,31,30.21,30.09,9,2,15,0.00
2013-9-6,80,62,47,61,52,45,95,74,42,30.24,30.05,8,1,11,0.00
2013-9-7,86,72,59,69,63,55,90,75,52,30.05,29.88,7,1,11,0.00
2013-9-8,75,68,60,68,65,59,99,88,74,30.00,29.89,12,3,14,0.00
2013-9-9,90,74,61,74,66,55,88,76,57,29.99,29.84,10,2,12,0.00
2013-9-10,94,83,73,74,71,67,95,70,42,30.00,29.88,10,1,14,0.00
2013-9-11,93,80,71,74,70,68,94,74,44,30.02,29.90,13,1,21,0.00
2013-9-12,81,70,58,70,64,53,99,83,45,29.96,29.80,10,3,19,0.74
2013-9-13,63,55,45,53,47,43,92,76,52,30.11,29.96,10,4,16,0.00
2013-9-14,69,52,36,49,43,36,99,76,39,30.20,30.08,6,1,9,0.00
2013-9-15,68,56,43,58,50,42,97,83,57,30.10,30.00,6,1,8,0.20
2013-9-16,67,58,50,56,52,46,98,82,55,30.31,30.10,9,2,14,0.00
2013-9-17,68,56,44,53,48,43,97,79,52,30.36,30.17,10,2,13,0.01
2013-9-18,80,65,54,61,55,50,95,74,40,30.17,29.98,7,1,10,0.00
2013-9-19,70,68,66,69,66,60,99,96,79,30.01,29.86,6,2,12,1.48
2013-9-20,76,72,65,72,69,64,98,91,79,29.88,29.73,7,1,11,0.13
2013-9-21,69,61,52,63,54,48,98,80,50,29.88,29.70,16,4,21,0.00
2013-9-22,65,56,46,52,47,44,92,74,52,30.04,29.88,12,2,14,0.00
2013-9-23,66,52,39,51,46,38,98,80,55,30.14,30.04,9,2,15,0.00
2013-9-24,68,54,43,51,47,42,97,79,51,30.11,29.95,10,2,14,0.01
2013-9-25,71,58,46,55,51,45,99,81,50,29.97,29.90,8,1,11,0.00
2013-9-26,77,59,42,60,49,42,99,75,36,30.09,29.95,10,1,13,0.01
2013-9-27,77,61,45,59,52,43,96,72,46,30.18,30.09,11,2,13,0.00
2013-9-28,80,64,50,59,55,49,97,75,44,30.14,29.97,9,2,14,0.00
2013-9-29,66,61,51,61,57,49,98,87,71,29.98,29.93,10,1,11,0.05
2013-9-30,71,58,50,61,55,49,99,90,64,30.00,29.91,7,1,12,0.01
2013-10-1,72,63,56,64,61,55,99,93,76,30.01,29.94,5,1,10,0.01
2013-10-2,81,69,60,68,64,60,99,87,62,30.06,29.96,4,0,7,0.01
2013-10-3,79,68,60,70,65,59,99,91,71,29.99,29.89,7,1,14,0.24
2013-10-4,80,71,66,74,68,64,97,91,74,29.98,29.91,6,1,14,0.94
2013-10-5,77,69,64,72,67,63,100,94,81,29.97,29.81,9,2,12,0.13
2013-10-6,68,60,49,68,58,42,98,93,73,29.82,29.67,11,3,15,0.52
2013-10-7,60,49,42,51,45,41,97,85,66,30.13,29.75,7,2,16,0.00
2013-10-8,70,55,42,54,48,41,98,80,48,30.25,30.13,9,2,14,0.01
2013-10-9,70,55,38,51,45,37,98,74,43,30.27,30.16,8,2,13,0.00
2013-10-10,72,55,42,54,47,41,98,76,43,30.19,30.09,6,1,13,0.00
2013-10-11,75,58,40,54,48,39,99,73,41,30.11,30.02,7,1,11,0.00
2013-10-12,79,63,49,62,54,48,98,76,42,30.08,29.98,7,1,14,0.01
2013-10-13,67,58,44,62,48,40,93,71,43,30.35,30.08,12,4,13,0.00
2013-10-14,64,50,37,50,44,35,98,80,53,30.38,30.21,9,2,13,0.00
2013-10-15,64,55,46,62,53,44,97,92,87,30.21,29.84,9,3,13,0.04
2013-10-16,63,53,47,62,49,45,96,86,74,29.93,29.83,8,1,17,0.00
2013-10-17,51,48,43,49,46,41,97,92,86,29.93,29.81,8,1,12,0.07
2013-10-18,62,48,40,49,43,38,96,83,55,29.96,29.88,6,1,17,0.01
2013-10-19,52,44,40,44,39,35,96,83,57,29.94,29.80,6,1,18,0.24
2013-10-20,61,51,39,46,41,36,90,70,52,29.93,29.84,9,2,16,0.01
2013-10-21,55,49,38,48,43,30,91,80,68,29.93,29.84,6,1,15,0.02
2013-10-22,48,38,31,35,30,26,95,77,45,29.99,29.91,6,1,12,0.06
2013-10-23,44,38,32,38,34,30,98,87,62,30.01,29.84,11,2,16,0.00
2013-10-24,42,37,32,35,33,30,92,85,69,30.26,30.00,10,2,17,0.03
2013-10-25,48,39,30,36,30,27,92,73,50,30.40,30.17,10,1,14,0.00
2013-10-26,54,44,35,40,34,29,93,69,58,30.17,29.84,19,3,23,0.00
2013-10-27,55,42,30,38,33,28,96,73,42,30.09,30.01,6,1,10,0.00
2013-10-28,58,42,30,41,34,28,93,75,48,30.35,30.07,6,1,9,0.00
2013-10-29,54,43,33,43,38,31,93,82,66,30.40,30.21,8,3,12,0.00
2013-10-30,62,51,38,60,48,37,99,89,80,30.21,29.89,10,3,13,0.33
2013-10-31,63,61,55,62,60,54,99,97,95,29.88,29.20,13,5,24,1.16
2013-11-1,55,48,45,54,44,42,96,87,77,29.70,29.27,8,2,19,0.04
2013-11-2,49,45,42,45,43,38,96,91,79,30.07,29.69,10,4,20,0.03
2013-11-3,48,42,38,41,39,36,97,88,74,30.37,30.08,13,4,15,0.37
2013-11-4,52,44,37,43,38,34,91,79,61,30.39,30.25,18,7,26,0.00
2013-11-5,55,51,44,50,46,41,92,83,70,30.34,30.12,14,4,19,0.00
2013-11-6,58,52,42,53,48,40,96,88,69,30.11,29.82,15,6,20,0.29
2013-11-7,47,40,33,40,34,28,93,78,50,30.22,30.03,15,3,17,0.01
2013-11-8,47,38,31,35,32,29,95,79,55,30.34,30.15,9,2,12,0.00
2013-11-9,60,50,42,43,38,32,74,64,51,30.14,29.88,12,4,22,0.00
2013-11-10,47,41,31,39,33,29,91,74,62,30.31,29.99,15,4,25,0.00
2013-11-11,48,39,28,40,34,23,96,82,65,30.36,30.07,17,4,20,0.12
2013-11-12,34,27,19,27,22,17,90,83,72,30.62,30.37,11,4,17,0.01
2013-11-13,38,29,20,23,20,17,90,71,48,30.60,30.28,10,2,14,0.01
2013-11-14,52,40,30,27,24,22,76,56,34,30.27,30.04,14,3,25,0.00
2013-11-15,51,44,39,33,30,25,76,58,48,30.06,30.00,9,2,14,0.00
2013-11-16,57,49,38,56,46,32,96,90,78,30.04,29.74,18,8,24,0.10
2013-11-17,64,57,47,61,54,41,97,90,75,29.74,29.27,14,6,30,0.91
2013-11-18,47,40,35,41,34,29,91,80,70,30.18,29.65,21,6,25,0.00
2013-11-19,43,35,28,30,28,24,87,74,55,30.37,30.19,9,3,18,0.00
2013-11-20,43,35,26,36,29,23,91,80,67,30.39,30.19,16,5,19,0.00
2013-11-21,48,44,41,48,42,36,99,92,75,30.26,30.16,9,4,14,0.56
2013-11-22,48,40,26,48,38,24,99,90,75,30.41,30.14,17,6,22,0.02
2013-11-23,32,25,17,27,21,13,95,86,64,30.61,30.35,21,7,30,0.00
2013-11-24,25,19,12,20,15,10,94,83,70,30.69,30.50,8,2,11,0.00
2013-11-25,31,26,19,26,19,11,85,75,62,30.49,30.16,10,3,17,0.00
2013-11-26,35,31,27,30,27,21,92,85,77,30.16,29.97,13,2,21,0.01
2013-11-27,28,25,23,24,21,17,92,84,73,30.26,29.99,15,5,19,0.00
2013-11-28,32,26,22,23,19,17,89,75,64,30.46,30.25,7,1,13,0.00
2013-11-29,36,30,23,24,23,19,89,76,59,30.66,30.46,8,2,11,0.00
2013-11-30,49,36,28,33,28,23,85,74,55,30.52,30.11,9,3,15,0.00
2013-12-1,45,37,26,38,31,25,95,80,68,30.11,29.99,9,1,11,0.00
2013-12-2,36,32,23,33,29,22,97,91,82,29.99,29.86,11,4,16,0.00
2013-12-3,48,40,34,46,39,32,97,95,93,29.85,29.77,14,6,16,0.16
2013-12-4,58,50,44,57,50,43,99,97,93,29.82,29.61,11,5,18,0.00
2013-12-5,58,37,27,56,33,22,94,84,78,30.19,29.62,13,3,24,0.00
2013-12-6,28,27,24,23,21,16,84,80,74,30.44,30.16,10,6,14,0.00
2013-12-7,26,20,13,18,14,10,91,79,63,30.65,30.45,12,4,16,0.00
2013-12-8,27,22,14,26,18,12,96,86,75,30.58,30.00,18,7,21,0.00
2013-12-9,28,24,16,27,20,9,96,85,74,30.20,29.95,11,3,21,0.00
2013-12-10,25,16,5,15,9,0,81,73,58,30.32,30.07,14,3,22,0.00
2013-12-11,24,17,5,20,12,2,92,84,68,30.51,30.32,11,2,17,0.01
2013-12-12,22,11,-2,12,4,-6,87,74,54,30.55,30.30,13,2,17,0.00
2013-12-13,29,22,14,25,16,8,94,76,65,30.31,30.17,7,2,10,0.02
2013-12-14,26,24,20,25,23,18,95,94,92,30.20,29.83,16,7,19,0.01
2013-12-15,25,17,10,23,15,7,94,89,84,30.12,29.91,12,2,15,0.00
2013-12-16,20,15,7,17,12,5,93,87,78,30.20,30.04,9,2,12,0.00
2013-12-17,28,22,18,26,21,17,95,93,89,30.09,29.98,7,2,11,0.00
2013-12-18,34,23,16,24,17,13,91,80,66,30.23,29.94,14,3,18,0.06
2013-12-19,44,40,34,38,34,24,92,81,67,30.00,29.86,10,2,13,0.13
2013-12-20,54,46,40,53,46,38,99,97,91,29.85,29.70,7,2,13,0.37
2013-12-21,47,37,34,46,36,34,99,98,96,29.82,29.55,20,4,20,1.13
2013-12-22,37,35,32,36,34,31,99,97,94,30.02,29.46,14,3,21,0.20
2013-12-23,32,25,11,31,22,7,97,88,79,30.40,30.04,12,3,14,0.00
2013-12-24,19,11,5,14,8,1,91,85,79,30.57,30.40,8,2,15,0.00
2013-12-25,26,23,16,25,20,14,95,87,81,30.50,30.13,13,4,18,0.00
2013-12-26,32,26,20,27,22,16,96,84,71,30.32,30.10,7,2,17,0.03
2013-12-27,42,36,28,35,31,26,92,82,73,30.34,30.15,7,2,15,0.03
2013-12-28,48,41,35,38,34,31,87,77,67,30.15,29.90,9,3,18,0.00
2013-12-29,43,35,24,35,30,21,94,81,69,30.05,29.74,18,5,26,0.00
2013-12-30,24,20,16,21,15,13,89,81,69,30.28,30.05,13,3,17,0.00
2013-12-31,18,15,12,14,11,8,90,84,74,30.38,30.16,8,2,13,0.00
2014-1-1,20,17,15,17,15,13,92,90,87,30.34,30.16,17,6,17,0.00
2014-1-2,16,13,-2,14,10,-6,92,87,77,30.37,30.05,16,8,23,0.00